Flag for Malaysia Weather past 2 weeks in Miri, Malaysia

Now
79 °F

Passing clouds.


Feels Like: 83 °F
Forecast: 76 / 88 °F
Wind: 2 mph from East

Location: Miri Airport

Current Time: Mar 29, 2015 at 12:58:21 AM

Latest Report: Mar 29, 2015 at 12:00 AM


Visibility: N/A

Pressure: 29.83 "Hg

Humidity: 94%

Dew point: 77 °F

Location of MiriLocation

Historic Weather in Miri — Graph

°F

Miri temperature yesterday

Maximum temperature yesterday: 88 °F (at 2:00 PM)
Minimum temperature yesterday: 75 °F (at 2:00 AM)
Average temperature yesterday: 81 °F

Past Weeks' High & Low Weather Summary

 TemperatureHumidityPressure
High91 °F (Mar 24, 1:00 PM)100% (Mar 13, 11:00 PM)29.98 "Hg (Mar 13, 11:00 PM)
Low72 °F (Mar 17, 5:00 AM)52% (Mar 24, 1:00 PM)29.74 "Hg (Mar 19, 4:00 PM)
Average81 °F84%29.86 "Hg
* Reported Mar 13 11:00 PM — Mar 28 11:00 PM, Miri, Weather by CustomWeather, © 2015

Note: Actual official high and low records may vary slightly from our data, if they occured in-between our weather recording intervals... More about our weather records

Advertising

Miri weather history for previous 24 hours

 ConditionsComfort  
Time TempWeatherWind HumidityBarometerVisibility
11:00 PM
Sat, Mar 28
79 °FPassing clouds.2 mph94%29.86 "HgN/A
10:00 PM79 °FPartly cloudy.5 mph94%29.86 "HgN/A
9:00 PM81 °FPassing clouds.6 mph89%29.83 "HgN/A
8:00 PM81 °FPassing clouds.6 mph89%29.83 "HgN/A
7:00 PM81 °FPartly cloudy.8 mph89%29.80 "HgN/A
6:00 PM82 °FPartly sunny.10 mph84%29.77 "HgN/A
5:00 PM86 °FPartly sunny.9 mph75%29.77 "HgN/A
4:00 PM86 °FPartly sunny.10 mph75%29.77 "HgN/A
3:00 PM86 °FScattered clouds.10 mph75%29.77 "HgN/A
2:00 PM88 °FScattered clouds.9 mph70%29.80 "HgN/A
1:00 PM86 °FScattered clouds.8 mph75%29.83 "HgN/A
12:00 PM86 °FScattered clouds.8 mph75%29.83 "HgN/A
11:00 AM86 °FScattered clouds.7 mph75%29.86 "HgN/A
10:00 AM86 °FPartly sunny.6 mph75%29.86 "HgN/A
9:00 AM82 °FPartly sunny.5 mph79%29.89 "HgN/A
8:00 AM81 °FBroken clouds.6 mph84%29.86 "Hg4 mi
7:00 AM75 °FPartly sunny.1 mph100%29.86 "Hg5 mi
6:00 AM75 °FPartly cloudy.3 mph94%29.83 "Hg5 mi
5:00 AM75 °FPartly cloudy.3 mph100%29.83 "HgN/A
4:00 AM75 °FPassing clouds.3 mph100%29.83 "HgN/A
3:00 AM75 °FPartly cloudy.2 mph94%29.83 "HgN/A
2:00 AM75 °FPartly cloudy.3 mph100%29.86 "HgN/A
1:00 AM77 °FPartly cloudy.2 mph94%29.86 "HgN/A
12:00 AM77 °FPartly cloudy.5 mph94%29.89 "HgN/A
Weather by CustomWeather, © 2015

See weather overviewHow to use our weather pages